Location: Unnamed
(51.5169°N, 0.1311°W)
Time: 17:21:04
(UTC+00:00)

Vanguard 1 - Visible Passes

Search period start: 13 November 2025 00:00
Search period end: 23 November 2025 00:00
Orbit: 649 x 3822 km, 34.3° (Epoch: 11 November)

Date Brightness Start Highest point End Pass type
(mag) Time Alt. Az. Time Alt. Az. Time Alt. Az.
13 Nov 13.6 16:32:10 10° SSW 16:50:27 37° SSE 17:09:15 10° E visible
13 Nov 13.0 18:52:50 10° WSW 19:14:02 47° S 19:24:01 31° SE visible
13 Nov 13.0 21:17:16 10° W 21:36:34 40° SSW 21:36:34 40° SSW visible
13 Nov 13.9 23:45:34 10° W 23:49:08 14° WSW 23:49:08 14° WSW visible
14 Nov 13.5 16:50:31 10° SW 17:09:26 41° SSE 17:28:50 10° E visible
14 Nov 13.0 19:11:59 10° WSW 19:33:15 48° S 19:42:09 34° SE visible
14 Nov 13.2 21:36:56 10° W 21:54:43 36° SW 21:54:43 36° SW visible
15 Nov 14.0 00:07:00 10° W 00:07:16 10° W 00:07:16 10° W visible
15 Nov 13.4 17:09:06 10° SW 17:28:31 44° SSE 17:47:44 11° ESE visible
15 Nov 13.0 19:31:14 10° WSW 19:52:26 47° S 20:00:17 36° SSE visible
15 Nov 13.3 21:56:45 10° W 22:12:51 32° SW 22:12:51 32° SW visible
16 Nov 13.4 17:27:54 10° SW 17:47:39 46° S 18:05:54 14° ESE visible
16 Nov 13.0 19:50:36 10° WSW 20:11:35 45° SSW 20:18:28 37° SSE visible
16 Nov 13.5 22:16:47 10° W 22:31:02 27° SW 22:31:02 27° SW visible
17 Nov 13.4 17:46:51 10° WSW 18:06:52 48° S 18:24:07 17° ESE visible
17 Nov 13.1 20:10:04 10° W 20:30:39 42° SSW 20:36:41 37° S visible
17 Nov 13.6 22:37:09 10° W 22:49:15 22° SW 22:49:15 22° SW visible
18 Nov 13.3 18:05:56 10° WSW 18:26:05 48° S 18:42:23 19° ESE visible
18 Nov 13.2 20:29:38 10° W 20:49:37 39° SSW 20:54:57 35° S visible
18 Nov 13.8 22:58:07 10° W 23:07:32 18° WSW 23:07:32 18° WSW visible
19 Nov 13.6 16:04:10 10° SW 16:21:27 43° SSE 16:42:06 10° E visible
19 Nov 13.3 18:25:07 10° WSW 18:45:18 48° S 19:00:43 21° SE visible
19 Nov 13.3 20:49:21 10° W 21:08:29 35° SSW 21:13:17 32° S visible
19 Nov 14.0 23:20:21 10° W 23:25:53 13° WSW 23:25:53 13° WSW visible
20 Nov 13.5 16:22:55 10° SW 16:40:32 45° SSE 17:01:32 10° ESE visible
20 Nov 13.4 18:44:24 10° WSW 19:04:29 46° SSW 19:19:07 22° SE visible
20 Nov 13.4 21:09:15 10° W 21:27:13 30° SW 21:31:43 28° SSW visible
21 Nov 13.5 16:41:49 10° WSW 16:59:42 47° S 17:20:53 10° ESE visible
21 Nov 13.4 19:03:47 10° W 19:23:37 43° SSW 19:37:37 22° SE visible
21 Nov 13.6 21:29:27 10° W 21:45:50 26° SW 21:50:14 24° SSW visible
22 Nov 13.5 17:00:50 10° WSW 17:18:53 48° S 17:40:07 10° ESE visible
22 Nov 13.5 19:23:16 10° W 19:42:40 40° SSW 19:56:14 21° SSE visible
22 Nov 13.7 21:50:08 10° W 22:04:20 21° SW 22:08:50 19° SSW visible
